Time,TemperatureF,DewpointF,PressureIn,WindDirection,WindDirectionDegrees,WindSpeedMPH,WindSpeedGustMPH,Humidity,HourlyPrecipIn,Conditions,Clouds,dailyrainin,SolarRadiationWatts/m^2,SoftwareType,DateUTC
2019-06-26 00:00:27,77.1,68,30.16,NE,40,2,4,73,0,,,0,0.00,weatherlink.com 1.10,2019-06-25 22:00:27,
2019-06-26 00:15:27,76.8,68,30.17,NE,35,3,5,74,0,,,0,0.00,weatherlink.com 1.10,2019-06-25 22:15:27,
2019-06-26 00:30:29,76.6,68,30.17,NE,53,2,5,74,0,,,0,0.00,weatherlink.com 1.10,2019-06-25 22:30:29,
2019-06-26 00:45:30,76.5,68,30.17,NNE,31,2,5,75,0,,,0,0.00,weatherlink.com 1.10,2019-06-25 22:45:30,
2019-06-26 01:00:32,76.4,68,30.17,North,355,3,4,75,0,,,0,0.00,weatherlink.com 1.10,2019-06-25 23:00:32,
2019-06-26 01:15:33,76.2,68,30.17,NNE,12,2,4,75,0,,,0,0.00,weatherlink.com 1.10,2019-06-25 23:15:33,
2019-06-26 01:30:35,75.9,68,30.18,ENE,57,2,3,76,0,,,0,0.00,weatherlink.com 1.10,2019-06-25 23:30:35,
2019-06-26 01:45:36,75.8,68,30.18,North,5,3,4,76,0,,,0,0.00,weatherlink.com 1.10,2019-06-25 23:45:36,
2019-06-26 02:00:41,76,68,30.18,North,355,2,3,76,0,,,0,0.00,weatherlink.com 1.10,2019-06-26 00:00:41,
2019-06-26 02:15:37,76.3,68,30.18,North,9,3,4,76,0,,,0,0.00,weatherlink.com 1.10,2019-06-26 00:15:37,
2019-06-26 02:30:38,76.6,69,30.18,NNE,15,3,4,76,0,,,0,0.00,weatherlink.com 1.10,2019-06-26 00:30:38,
2019-06-26 02:45:38,76.8,68,30.18,NE,46,3,6,75,0,,,0,0.00,weatherlink.com 1.10,2019-06-26 00:45:38,
2019-06-26 03:00:40,77,69,30.17,NE,35,4,5,75,0,,,0,0.00,weatherlink.com 1.10,2019-06-26 01:00:40,
2019-06-26 03:15:44,77.1,69,30.17,NE,43,1,4,75,0,,,0,0.00,weatherlink.com 1.10,2019-06-26 01:15:44,
2019-06-26 03:30:46,77.2,69,30.17,North,355,3,4,75,0,,,0,0.00,weatherlink.com 1.10,2019-06-26 01:30:46,
2019-06-26 03:45:47,77.4,69,30.17,NE,41,2,3,75,0,,,0,0.00,weatherlink.com 1.10,2019-06-26 01:45:47,
2019-06-26 04:00:48,77.5,69,30.17,North,350,2,5,75,0,,,0,0.00,weatherlink.com 1.10,2019-06-26 02:00:48,
2019-06-26 04:15:48,77.5,69,30.17,NE,40,1,3,75,0,,,0,0.00,weatherlink.com 1.10,2019-06-26 02:15:48,
2019-06-26 04:30:49,77.6,69,30.17,NE,40,2,3,75,0,,,0,0.00,weatherlink.com 1.10,2019-06-26 02:30:49,
2019-06-26 04:45:49,77.6,69,30.17,NNE,33,1,3,75,0,,,0,0.00,weatherlink.com 1.10,2019-06-26 02:45:49,
2019-06-26 05:00:50,77.5,69,30.17,NE,41,1,3,75,0,,,0,0.00,weatherlink.com 1.10,2019-06-26 03:00:50,
2019-06-26 05:15:52,77.3,69,30.17,NNE,20,1,3,75,0,,,0,0.00,weatherlink.com 1.10,2019-06-26 03:15:52,
2019-06-26 05:30:53,77.2,69,30.17,NNE,26,2,3,75,0,,,0,0.00,weatherlink.com 1.10,2019-06-26 03:30:53,
2019-06-26 05:45:51,77.1,69,30.17,NE,40,3,3,75,0,,,0,0.00,weatherlink.com 1.10,2019-06-26 03:45:51,
2019-06-26 06:00:53,77,69,30.17,NE,44,4,5,75,0,,,0,9.00,weatherlink.com 1.10,2019-06-26 04:00:53,
2019-06-26 06:15:55,77,69,30.17,NE,41,0,5,77,0,,,0,18.00,weatherlink.com 1.10,2019-06-26 04:15:55,
2019-06-26 06:30:57,77.2,69,30.17,NNE,28,1,3,76,0,,,0,30.00,weatherlink.com 1.10,2019-06-26 04:30:57,
2019-06-26 06:45:00,77.5,69,30.17,North,9,1,3,76,0,,,0,44.00,weatherlink.com 1.10,2019-06-26 04:45:00,
2019-06-26 07:00:03,77.8,70,30.17,NE,39,1,3,76,0,,,0,62.00,weatherlink.com 1.10,2019-06-26 05:00:03,
2019-06-26 07:15:06,78,70,30.17,North,350,2,3,75,0,,,0,86.00,weatherlink.com 1.10,2019-06-26 05:15:06,
2019-06-26 07:30:10,78.5,70,30.17,NNE,23,1,3,75,0,,,0,116.00,weatherlink.com 1.10,2019-06-26 05:30:10,
2019-06-26 07:45:13,79.4,70,30.17,NE,34,3,3,73,0,,,0,195.00,weatherlink.com 1.10,2019-06-26 05:45:13,
2019-06-26 08:00:18,80.4,70,30.17,NE,49,1,4,71,0,,,0,251.00,weatherlink.com 1.10,2019-06-26 06:00:18,
2019-06-26 08:15:21,81.1,70,30.17,NE,39,2,4,70,0,,,0,279.00,weatherlink.com 1.10,2019-06-26 06:15:21,
2019-06-26 08:30:28,82.3,71,30.17,NE,40,0,3,68,0,,,0,315.00,weatherlink.com 1.10,2019-06-26 06:30:28,
2019-06-26 08:45:30,83.7,71,30.17,NNW,329,2,2,66,0,,,0,360.00,weatherlink.com 1.10,2019-06-26 06:45:30,
2019-06-26 09:00:35,85.2,71,30.17,NE,35,0,3,62,0,,,0,403.00,weatherlink.com 1.10,2019-06-26 07:00:35,
2019-06-26 09:15:41,85.7,72,30.17,SSE,154,1,2,64,0,,,0,445.00,weatherlink.com 1.10,2019-06-26 07:15:41,
2019-06-26 09:30:44,87,70,30.17,NNW,327,2,3,58,0,,,0,487.00,weatherlink.com 1.10,2019-06-26 07:30:44,
2019-06-26 09:45:48,86.4,72,30.17,WSW,244,2,4,62,0,,,0,522.00,weatherlink.com 1.10,2019-06-26 07:45:48,
2019-06-26 10:00:54,86.6,72,30.17,WSW,248,3,3,61,0,,,0,552.00,weatherlink.com 1.10,2019-06-26 08:00:54,
2019-06-26 10:15:56,86.9,71,30.17,NW,311,3,4,59,0,,,0,598.00,weatherlink.com 1.10,2019-06-26 08:15:56,
2019-06-26 10:30:59,87.2,70,30.16,WNW,284,2,6,56,0,,,0,629.00,weatherlink.com 1.10,2019-06-26 08:30:59,
2019-06-26 10:45:02,87,70,30.16,NW,312,2,8,57,0,,,0,656.00,weatherlink.com 1.10,2019-06-26 08:45:02,
2019-06-26 11:00:06,87,69,30.16,WSW,246,5,5,56,0,,,0,682.00,weatherlink.com 1.10,2019-06-26 09:00:06,
2019-06-26 11:15:09,88,70,30.16,NNW,346,4,6,55,0,,,0,703.00,weatherlink.com 1.10,2019-06-26 09:15:09,
2019-06-26 11:30:13,89,69,30.16,West,267,0,7,52,0,,,0,731.00,weatherlink.com 1.10,2019-06-26 09:30:13,
2019-06-26 11:45:16,88.2,70,30.16,NNW,333,3,6,55,0,,,0,758.00,weatherlink.com 1.10,2019-06-26 09:45:16,
2019-06-26 12:00:21,89.1,70,30.16,SSW,210,0,8,54,0,,,0,777.00,weatherlink.com 1.10,2019-06-26 10:00:21,
2019-06-26 12:15:24,90.5,69,30.16,NNW,334,4,6,50,0,,,0,796.00,weatherlink.com 1.10,2019-06-26 10:15:24,
2019-06-26 12:30:26,90.9,70,30.15,NW,323,6,8,50,0,,,0,802.00,weatherlink.com 1.10,2019-06-26 10:30:26,
2019-06-26 12:45:30,90.7,70,30.15,NNW,342,5,8,50,0,,,0,795.00,weatherlink.com 1.10,2019-06-26 10:45:30,
2019-06-26 13:00:31,91.3,70,30.15,WNW,302,4,9,49,0,,,0,814.00,weatherlink.com 1.10,2019-06-26 11:00:31,
2019-06-26 13:15:35,91.6,70,30.14,West,279,3,8,49,0,,,0,814.00,weatherlink.com 1.10,2019-06-26 11:15:35,
2019-06-26 13:30:39,91.8,69,30.14,NNW,334,5,8,48,0,,,0,824.00,weatherlink.com 1.10,2019-06-26 11:30:39,
2019-06-26 13:45:45,91.6,70,30.14,NW,314,4,7,49,0,,,0,816.00,weatherlink.com 1.10,2019-06-26 11:45:45,
2019-06-26 14:00:43,92.1,69,30.14,WNW,302,2,8,47,0,,,0,803.00,weatherlink.com 1.10,2019-06-26 12:00:43,
2019-06-26 14:15:46,93,71,30.13,South,169,0,9,48,0,,,0,779.00,weatherlink.com 1.10,2019-06-26 12:15:46,
2019-06-26 14:30:49,92.4,71,30.13,NNW,338,6,9,50,0,,,0,775.00,weatherlink.com 1.10,2019-06-26 12:30:49,
2019-06-26 14:45:50,92.8,70,30.13,NE,38,2,6,48,0,,,0,766.00,weatherlink.com 1.10,2019-06-26 12:45:50,
2019-06-26 15:00:53,92.5,71,30.12,NNW,340,2,9,49,0,,,0,744.00,weatherlink.com 1.10,2019-06-26 13:00:53,
2019-06-26 15:15:54,92.5,71,30.12,SSE,163,2,9,50,0,,,0,733.00,weatherlink.com 1.10,2019-06-26 13:15:54,
2019-06-26 15:30:57,93.2,70,30.12,SSE,167,1,8,47,0,,,0,698.00,weatherlink.com 1.10,2019-06-26 13:30:57,
2019-06-26 15:45:59,93.6,70,30.12,WNW,288,4,8,47,0,,,0,693.00,weatherlink.com 1.10,2019-06-26 13:45:59,
2019-06-26 16:00:01,93.4,71,30.11,NW,308,2,11,48,0,,,0,645.00,weatherlink.com 1.10,2019-06-26 14:00:01,
2019-06-26 16:15:04,92.5,71,30.11,SW,221,1,7,50,0,,,0,631.00,weatherlink.com 1.10,2019-06-26 14:15:04,
2019-06-26 16:30:06,93.4,72,30.11,NNW,333,2,8,50,0,,,0,584.00,weatherlink.com 1.10,2019-06-26 14:30:06,
2019-06-26 16:45:08,94,72,30.11,WSW,248,3,9,49,0,,,0,513.00,weatherlink.com 1.10,2019-06-26 14:45:08,
2019-06-26 17:00:10,92.5,72,30.10,SW,225,3,7,52,0,,,0,450.00,weatherlink.com 1.10,2019-06-26 15:00:10,
2019-06-26 17:15:11,92.3,72,30.10,NW,321,4,9,52,0,,,0,408.00,weatherlink.com 1.10,2019-06-26 15:15:11,
2019-06-26 17:30:12,93,72,30.09,WSW,238,2,9,50,0,,,0,396.00,weatherlink.com 1.10,2019-06-26 15:30:12,
2019-06-26 17:45:14,93.4,72,30.09,South,171,4,8,50,0,,,0,383.00,weatherlink.com 1.10,2019-06-26 15:45:14,
2019-06-26 18:00:15,92.8,72,30.09,West,262,2,5,51,0,,,0,364.00,weatherlink.com 1.10,2019-06-26 16:00:15,
2019-06-26 18:15:15,92.8,73,30.09,WSW,242,3,8,52,0,,,0,336.00,weatherlink.com 1.10,2019-06-26 16:15:15,
2019-06-26 18:30:16,93,73,30.09,West,275,1,6,52,0,,,0,287.00,weatherlink.com 1.10,2019-06-26 16:30:16,
2019-06-26 18:45:16,93.1,72,30.09,West,273,2,8,51,0,,,0,255.00,weatherlink.com 1.10,2019-06-26 16:45:16,
2019-06-26 19:00:17,92.6,72,30.09,NW,308,3,8,52,0,,,0,223.00,weatherlink.com 1.10,2019-06-26 17:00:17,
2019-06-26 19:15:17,93,72,30.09,NW,320,1,5,51,0,,,0,185.00,weatherlink.com 1.10,2019-06-26 17:15:17,
2019-06-26 19:30:18,92.9,73,30.10,NNW,341,3,3,52,0,,,0,148.00,weatherlink.com 1.10,2019-06-26 17:30:18,
2019-06-26 19:45:18,91.7,73,30.10,WNW,296,0,5,54,0,,,0,116.00,weatherlink.com 1.10,2019-06-26 17:45:18,
2019-06-26 20:00:19,91.4,73,30.10,WNW,302,0,4,55,0,,,0,84.00,weatherlink.com 1.10,2019-06-26 18:00:19,
2019-06-26 20:15:20,91,72,30.10,West,275,0,3,54,0,,,0,58.00,weatherlink.com 1.10,2019-06-26 18:15:20,
2019-06-26 20:30:20,90.2,72,30.11,West,273,0,3,55,0,,,0,39.00,weatherlink.com 1.10,2019-06-26 18:30:20,
2019-06-26 20:45:21,89.5,72,30.11,West,263,0,2,56,0,,,0,23.00,weatherlink.com 1.10,2019-06-26 18:45:21,
2019-06-26 21:00:22,88.7,72,30.11,WNW,300,1,3,58,0,,,0,12.00,weatherlink.com 1.10,2019-06-26 19:00:22,